Tracking 19644 objects as of 25-Apr-2019
HD Live streaming from Space Station
objects crossing your sky now

MIDAS 3 DEB

Track MIDAS 3 DEB now!
10-day predictions


NORAD ID: 196
Int'l Code: 1961-018D
Perigee: 3,373.9 km
Apogee: 3,560.6 km
Inclination: 91.2 °
Period: 161.9 minutes
Semi major axis: 9838 km
RCS: 0.5714 m2 (medium)
Launch date: July 12, 1961
Source: United States (US)
Launch site: AIR FORCE WESTERN TEST RANGE (AFWTR)

Note: This is SATELLITE DEBRIS
aabbcc
Your satellite tracking list
Your tracking list is empty




NASA's NSSDC Master Catalog

Two Line Element Set (TLE):
1   196U 61018D   19112.36831103 -.00000011 +00000-0 -43503-2 0  9992
2   196 091.2099 088.3650 0094882 283.9590 075.0744 08.89667901876333
Source of the keplerian elements: AFSPC